GW2922 Weather Reports


Display with metric or nautical units.
time (UTC)temp
F
wind
direction
speed
MPH
gust
MPH
rain 1hr
in
rain 24hr
in
rain mn
in
humidity
%
barometer
mb
20260901190955 67 96 1.0 8.0 0.00 0.00 0.00 74 1011.8
20260901190451 67 108 2.0 2.0 0.00 0.00 0.00 72 1012.1
20260901185949 66 99 1.0 2.0 0.00 0.00 0.00 71 1012.1
20260901185444 65 116 1.0 1.0 0.00 0.00 0.00 73 1012.1
20260901184943 66 61 1.0 2.0 0.00 0.00 0.00 73 1012.1
20260901184439 65 74 1.0 3.0 0.00 0.00 0.00 72 1012.1
20260901183934 63 94 1.0 2.0 0.00 0.00 0.00 75 1012.1
20260901183433 63 99 0.0 4.0 0.00 0.00 0.00 76 1012.1
20260901182929 64 38 2.0 2.0 0.00 0.00 0.00 75 1012.1
20260901182424 64 100 0.0 2.0 0.00 0.00 0.00 74 1012.1
20260901181914 64 102 0.0 1.0 0.00 0.00 0.00 75 1012.1
20260901181408 62 108 0.0 1.0 0.00 0.00 0.00 77 1012.1
20260901180907 62 93 1.0 2.0 0.00 0.00 0.00 78 1012.1
20260901180401 61 18 1.0 2.0 0.00 0.00 0.00 78 1012.1
20260901175900 61 136 0.0 2.0 0.00 0.00 0.00 78 1012.1
20260901175354 61 105 0.0 1.0 0.00 0.00 0.00 78 1012.1
20260901174849 61 110 0.0 1.0 0.00 0.00 0.00 79 1012.1
20260901174345 61 116 1.0 2.0 0.00 0.00 0.00 79 1012.1
20260901173841 61 116 0.0 0.0 0.00 0.00 0.00 79 1012.1
20260901173335 61 87 0.0 2.0 0.00 0.00 0.00 79 1012.1
20260901172832 61 172 0.0 1.0 0.00 0.00 0.00 79 1011.8
20260901172331 61 121 0.0 2.0 0.00 0.00 0.00 80 1011.8
20260901171829 62 95 2.0 3.0 0.00 0.00 0.00 82 1011.8
20260901171329 61 110 3.0 6.0 0.00 0.00 0.00 83 1011.8
20260901170828 60 102 1.0 4.0 0.00 0.00 0.00 85 1011.8
20260901170322 60 163 7.0 8.0 0.00 0.00 0.00 84 1011.8
20260901165816 60 189 3.0 6.0 0.00 0.00 0.00 84 1011.8
20260901165310 60 177 1.0 4.0 0.00 0.00 0.00 85 1011.3
20260901164807 60 179 2.0 4.0 0.00 0.00 0.00 86 1011.8
20260901164302 59 218 5.0 7.0 0.00 0.00 0.00 86 1011.8
20260901163757 59 169 1.0 4.0 0.00 0.00 0.00 88 1011.8
20260901163256 58 207 3.0 6.0 0.00 0.00 0.00 89 1011.8
20260901162751 58 180 6.0 7.0 0.00 0.00 0.00 89 1011.8
20260901162251 57 159 2.0 4.0 0.00 0.00 0.00 90 1011.8
20260901161749 57 112 3.0 4.0 0.00 0.00 0.00 90 1011.8
20260901161244 57 150 3.0 4.0 0.00 0.00 0.00 90 1011.8
20260901160740 57 171 3.0 8.0 0.00 0.00 0.00 91 1011.8
20260901160236 57 222 4.0 10.0 0.00 0.00 0.00 91 1011.8
20260901155735 57 170 2.0 6.0 0.00 0.00 0.00 91 1011.8
20260901155231 56 149 2.0 8.0 0.00 0.00 0.00 91 1011.8
20260901154726 56 163 5.0 7.0 0.00 0.00 0.00 91 1011.3
20260901154221 56 155 4.0 6.0 0.00 0.00 0.00 91 1011.8
20260901153716 56 98 1.0 6.0 0.00 0.00 0.00 91 1011.8
20260901153215 56 157 1.0 4.0 0.00 0.00 0.00 91 1011.8
20260901152709 56 170 2.0 7.0 0.00 0.00 0.00 91 1011.8
20260901152203 56 116 1.0 8.0 0.00 0.00 0.00 91 1011.3
20260901151659 56 180 1.0 7.0 0.00 0.00 0.00 91 1011.8
20260901151158 56 140 3.0 8.0 0.00 0.00 0.00 91 1011.8
20260901150658 56 184 5.0 6.0 0.00 0.00 0.00 91 1011.3
20260901150156 56 177 5.0 7.0 0.00 0.00 0.00 91 1011.3
20260901145654 56 98 3.0 8.0 0.00 0.00 0.00 91 1011.3
20260901145153 55 166 4.0 7.0 0.00 0.00 0.00 91 1011.3
20260901144649 55 120 5.0 9.0 0.00 0.00 0.00 91 1011.3
20260901144143 55 150 4.0 9.0 0.00 0.00 0.00 91 1011.3
20260901143639 54 91 3.0 6.0 0.00 0.00 0.00 91 1011.3
20260901143135 54 164 5.0 6.0 0.00 0.00 0.00 91 1011.3
20260901142631 54 158 2.0 7.0 0.00 0.00 0.00 91 1011.3
20260901142130 54 121 3.0 4.0 0.00 0.00 0.00 90 1011.3
20260901141626 54 112 4.0 6.0 0.00 0.00 0.00 90 1011.3
20260901141126 54 128 3.0 4.0 0.00 0.00 0.00 90 1011.3
20260901140625 54 179 2.0 4.0 0.00 0.00 0.00 90 1011.3
20260901140124 54 122 1.0 2.0 0.00 0.00 0.00 90 1011.3
20260901135624 54 127 2.0 3.0 0.00 0.00 0.00 90 1011.3
20260901135119 54 119 1.0 2.0 0.00 0.00 0.00 90 1011.3
20260901134615 54 137 1.0 2.0 0.00 0.00 0.00 91 1011.3
20260901134110 53 162 2.0 3.0 0.00 0.00 0.00 91 1011.3
20260901133609 53 148 1.0 2.0 0.00 0.00 0.00 91 1011.3
20260901133107 53 172 2.0 3.0 0.00 0.00 0.00 91 1011.3
20260901132602 53 136 2.0 3.0 0.00 0.00 0.00 91 1011.0
20260901132056 53 129 1.0 1.0 0.00 0.00 0.00 91 1011.3
20260901131550 53 149 1.0 2.0 0.00 0.00 0.00 91 1011.0
20260901131046 53 123 1.0 2.0 0.00 0.00 0.00 91 1011.3
20260901130545 53 143 1.0 2.0 0.00 0.00 0.00 92 1011.0
20260901130044 53 130 0.0 1.0 0.00 0.00 0.00 92 1011.0
20260901125542 52 126 0.0 0.0 0.00 0.00 0.00 92 1011.0
20260901125038 52 121 0.0 0.0 0.00 0.00 0.00 92 1011.0
20260901124538 52 104 0.0 0.0 0.00 0.00 0.00 92 1011.0
20260901124033 53 104 0.0 0.0 0.00 0.00 0.00 92 1011.3
20260901123528 53 120 0.0 1.0 0.00 0.00 0.00 92 1011.0
20260901123027 52 123 0.0 1.0 0.00 0.00 0.00 93 1011.0
20260901122526 52 115 0.0 0.0 0.00 0.00 0.00 93 1011.0
20260901122020 52 115 0.0 0.0 0.00 0.00 0.00 93 1011.0
20260901121514 52 111 0.0 0.0 0.00 0.00 0.00 92 1011.0
20260901121009 53 104 0.0 0.0 0.00 0.00 0.00 93 1011.3
20260901120503 53 114 0.0 1.0 0.00 0.00 0.00 93 1011.0
20260901115959 53 117 1.0 1.0 0.00 0.00 0.00 93 1011.0
20260901115454 52 119 0.0 0.0 0.00 0.00 0.00 93 1011.0
20260901114951 51 112 0.0 0.0 0.00 0.00 0.00 93 1011.0
20260901114446 52 112 0.0 0.0 0.00 0.00 0.00 93 1011.0
20260901113945 52 108 0.0 0.0 0.00 0.00 0.00 93 1011.0
20260901113444 52 117 0.0 0.0 0.00 0.00 0.00 93 1011.0
20260901112940 52 117 0.0 0.0 0.00 0.00 0.00 93 1011.3
20260901112435 51 109 0.0 0.0 0.00 0.00 0.00 92 1011.0
20260901111930 51 109 0.0 0.0 0.00 0.00 0.00 92 1011.3
20260901111429 51 110 0.0 0.0 0.00 0.00 0.00 92 1011.3
20260901110927 51 110 0.0 0.0 0.00 0.00 0.00 92 1011.3
20260901110423 51 109 0.0 0.0 0.00 0.00 0.00 92 1011.3
20260901105919 52 109 0.0 0.0 0.00 0.00 0.00 92 1011.3
20260901105414 52 109 0.0 0.0 0.00 0.00 0.00 92 1011.3
20260901104910 51 110 0.0 0.0 0.00 0.00 0.00 92 1011.0
20260901104405 51 110 0.0 0.0 0.00 0.00 0.00 92 1011.3
20260901103901 51 109 0.0 0.0 0.00 0.00 0.00 92 1011.3
20260901103400 51 109 0.0 0.0 0.00 0.00 0.00 91 1011.3
20260901102855 51 109 0.0 0.0 0.00 0.00 0.00 91 1011.0
20260901102349 51 109 0.0 0.0 0.00 0.00 0.00 91 1011.3
20260901101844 51 109 0.0 0.0 0.00 0.00 0.00 91 1011.3
20260901101339 51 109 0.0 0.0 0.00 0.00 0.00 91 1011.3
20260901100839 51 109 0.0 0.0 0.00 0.00 0.00 91 1011.3
20260901100338 51 110 0.0 0.0 0.00 0.00 0.00 91 1011.3
20260901095833 52 109 0.0 0.0 0.00 0.00 0.00 91 1011.3
20260901095330 52 99 0.0 0.0 0.00 0.00 0.00 90 1011.3
20260901094824 52 98 0.0 0.0 0.00 0.00 0.00 90 1011.3
20260901094319 51 113 0.0 0.0 0.00 0.00 0.00 90 1011.3
20260901093815 52 113 0.0 0.0 0.00 0.00 0.00 90 1011.3
20260901093313 52 112 0.0 0.0 0.00 0.00 0.00 90 1011.3
20260901092809 52 114 0.0 0.0 0.00 0.00 0.00 90 1011.3
20260901092306 52 114 0.0 0.0 0.00 0.00 0.00 90 1011.3
20260901091801 52 114 0.0 0.0 0.00 0.00 0.00 89 1011.3
20260901091256 53 114 0.0 0.0 0.00 0.00 0.00 89 1011.3
20260901090755 53 114 0.0 0.0 0.00 0.00 0.00 89 1011.3
20260901090250 53 113 0.0 0.0 0.00 0.00 0.00 89 1011.3
20260901085746 53 114 0.0 0.0 0.00 0.00 0.00 88 1011.3
20260901085241 53 114 0.0 0.0 0.00 0.00 0.00 88 1011.3
20260901084738 53 114 0.0 0.0 0.00 0.00 0.00 88 1011.3
20260901084235 53 114 0.0 0.0 0.00 0.00 0.00 87 1011.3
20260901083734 54 114 0.0 0.0 0.00 0.00 0.00 87 1011.3
20260901083234 54 114 0.0 0.0 0.00 0.00 0.00 86 1011.3
20260901082732 54 114 0.0 0.0 0.00 0.00 0.00 85 1011.3
20260901082228 54 114 0.0 0.0 0.00 0.00 0.00 85 1011.3
20260901081723 55 114 0.0 0.0 0.00 0.00 0.00 85 1011.3
20260901081223 55 114 0.0 0.0 0.00 0.00 0.00 85 1011.3
20260901080718 55 114 0.0 0.0 0.00 0.00 0.00 84 1011.3
20260901080217 55 112 0.0 0.0 0.00 0.00 0.00 83 1011.0
20260901075712 55 112 0.0 0.0 0.00 0.00 0.00 83 1011.3
20260901075211 56 118 0.0 0.0 0.00 0.00 0.00 83 1011.3
20260901074706 56 118 0.0 0.0 0.00 0.00 0.00 82 1011.0
20260901074201 56 118 0.0 0.0 0.00 0.00 0.00 82 1011.3
20260901073658 57 117 0.0 0.0 0.00 0.00 0.00 81 1011.3
20260901073153 57 133 0.0 1.0 0.00 0.00 0.00 81 1011.3
20260901072648 57 55 0.0 1.0 0.00 0.00 0.00 80 1011.0
20260901072143 57 99 0.0 1.0 0.00 0.00 0.00 80 1011.0
20260901071642 57 98 0.0 1.0 0.00 0.00 0.00 80 1011.3
20260901071137 57 139 0.0 1.0 0.00 0.00 0.00 80 1011.3
20260901070631 57 103 0.0 1.0 0.00 0.00 0.00 80 1011.3
20260901070127 57 64 1.0 2.0 0.00 0.00 0.00 79 1011.3
20260901065620 57 93 1.0 3.0 0.00 0.00 0.00 79 1011.3
20260901065115 57 313 1.0 2.0 0.00 0.00 0.00 79 1011.3
20260901064612 58 109 0.0 1.0 0.00 0.00 0.00 79 1011.3
20260901064108 58 104 0.0 0.0 0.00 0.00 0.00 79 1011.3
20260901063605 58 106 0.0 2.0 0.00 0.00 0.00 80 1011.3
20260901063101 58 103 0.0 2.0 0.00 0.00 0.00 80 1011.3
20260901062556 58 106 0.0 1.0 0.00 0.00 0.00 80 1011.3
20260901062052 58 30 1.0 1.0 0.00 0.00 0.00 80 1011.3
20260901061548 58 258 0.0 6.0 0.00 0.00 0.00 80 1011.3
20260901061043 58 66 1.0 1.0 0.00 0.00 0.00 80 1011.8
20260901060537 58 325 0.0 6.0 0.00 0.00 0.00 79 1011.3
20260901060032 57 78 1.0 2.0 0.00 0.00 0.00 80 1011.8
20260901055527 57 276 0.0 2.0 0.00 0.00 0.00 80 1011.8
20260901055024 57 51 2.0 3.0 0.00 0.00 0.00 81 1011.8
20260901054521 57 109 0.0 1.0 0.00 0.00 0.00 80 1011.8
20260901054017 57 106 0.0 2.0 0.00 0.00 0.00 80 1011.8
20260901053513 57 338 1.0 2.0 0.00 0.00 0.00 80 1011.8
20260901053009 57 339 0.0 2.0 0.00 0.00 0.00 80 1011.8
20260901052504 58 339 1.0 4.0 0.00 0.00 0.00 80 1012.1
20260901052004 58 91 0.0 4.0 0.00 0.00 0.00 79 1011.8
20260901051458 58 105 1.0 3.0 0.00 0.00 0.00 79 1011.8
20260901050957 58 80 1.0 1.0 0.00 0.00 0.00 78 1011.8
20260901050452 58 206 1.0 1.0 0.00 0.00 0.00 78 1011.8
20260901045952 58 329 1.0 3.0 0.00 0.00 0.00 78 1011.8
20260901045448 58 20 1.0 2.0 0.00 0.00 0.00 78 1011.8
20260901044942 58 289 2.0 3.0 0.00 0.00 0.00 78 1011.8
20260901044438 58 50 1.0 2.0 0.00 0.00 0.00 78 1011.8
20260901043934 58 105 1.0 2.0 0.00 0.00 0.00 78 1011.8
20260901043430 58 95 0.0 1.0 0.00 0.00 0.00 78 1012.1
20260901042930 59 103 1.0 1.0 0.00 0.00 0.00 78 1012.1
20260901042430 59 18 2.0 3.0 0.00 0.00 0.00 77 1011.8
20260901041925 59 79 1.0 3.0 0.00 0.00 0.00 77 1011.8
20260901041420 59 98 0.0 2.0 0.00 0.00 0.00 77 1011.8
20260901040919 59 112 0.0 2.0 0.00 0.00 0.00 77 1011.8
20260901040414 59 125 0.0 1.0 0.00 0.00 0.00 76 1011.8
20260901035908 59 105 0.0 3.0 0.00 0.00 0.00 76 1011.8
20260901035406 60 89 0.0 3.0 0.00 0.00 0.00 75 1011.8
20260901034905 60 41 1.0 1.0 0.00 0.00 0.00 75 1011.8
20260901034400 60 83 0.0 2.0 0.00 0.00 0.00 74 1011.8
20260901033855 61 338 1.0 2.0 0.00 0.00 0.00 73 1011.8
20260901033354 61 22 2.0 3.0 0.00 0.00 0.00 73 1011.8
20260901032853 61 58 1.0 3.0 0.00 0.00 0.00 72 1011.8
20260901032352 62 343 1.0 3.0 0.00 0.00 0.00 71 1011.3
20260901031848 62 342 2.0 6.0 0.00 0.00 0.00 71 1011.8
20260901031343 62 86 1.0 3.0 0.00 0.00 0.00 71 1011.3
20260901030843 62 111 1.0 2.0 0.00 0.00 0.00 70 1011.8
20260901030338 63 87 1.0 1.0 0.00 0.00 0.00 69 1011.3
20260901025837 63 85 1.0 3.0 0.00 0.00 0.00 69 1011.8
20260901025332 64 96 1.0 3.0 0.00 0.00 0.00 68 1011.8
20260901024827 64 114 1.0 4.0 0.00 0.00 0.00 68 1011.8
20260901024326 64 86 1.0 2.0 0.00 0.00 0.00 67 1011.8
20260901023824 65 94 1.0 1.0 0.00 0.00 0.00 66 1011.3
20260901023320 65 103 0.0 1.0 0.00 0.00 0.00 65 1011.8
20260901022815 65 96 0.0 1.0 0.00 0.00 0.00 65 1011.8
20260901022311 65 103 1.0 1.0 0.00 0.00 0.00 64 1011.8
20260901021806 66 59 1.0 2.0 0.00 0.00 0.00 64 1011.8
20260901021302 66 104 0.0 2.0 0.00 0.00 0.00 64 1011.8
20260901020756 66 66 1.0 2.0 0.00 0.00 0.00 64 1011.8
20260901020251 66 89 1.0 3.0 0.00 0.00 0.00 64 1011.8
20260901015746 66 90 0.0 2.0 0.00 0.00 0.00 65 1011.8
20260901015242 66 148 0.0 6.0 0.00 0.00 0.00 65 1011.8
20260901014736 66 100 0.0 4.0 0.00 0.00 0.00 66 1011.8
20260901014232 66 291 2.0 3.0 0.00 0.00 0.00 65 1011.8
20260901013728 66 98 1.0 4.0 0.00 0.00 0.00 65 1011.8
20260901013223 66 226 1.0 3.0 0.00 0.00 0.00 65 1011.8
20260901012718 66 146 0.0 2.0 0.00 0.00 0.00 65 1011.8
20260901012218 68 303 2.0 3.0 0.00 0.00 0.00 62 1012.1
20260901011714 68 225 2.0 2.0 0.00 0.00 0.00 62 1011.8
20260901011214 67 73 2.0 3.0 0.00 0.00 0.00 63 1012.1
20260901010708 68 345 3.0 6.0 0.00 0.00 0.00 62 1011.8
20260901010202 69 38 1.0 2.0 0.00 0.00 0.00 61 1012.1
20260901005656 69 111 1.0 1.0 0.00 0.00 0.00 60 1012.1
20260901005152 70 90 1.0 3.0 0.00 0.00 0.00 59 1012.1
20260901004652 72 359 2.0 2.0 0.00 0.00 0.00 56 1012.1
20260901004146 72 112 0.0 3.0 0.00 0.00 0.00 56 1012.5
20260901003640 71 112 1.0 2.0 0.00 0.00 0.00 58 1012.1
20260901003139 71 106 1.0 3.0 0.00 0.00 0.00 59 1012.1
20260901002634 72 314 3.0 3.0 0.00 0.00 0.00 56 1012.5
20260901002128 71 111 1.0 3.0 0.00 0.00 0.00 58 1012.5
20260901001624 70 130 0.0 1.0 0.00 0.00 0.00 59 1012.5
20260901001119 69 320 2.0 2.0 0.00 0.00 0.00 60 1012.5
20260901000614 69 236 2.0 4.0 0.00 0.00 0.00 61 1012.5
20260901000109 71 333 3.0 7.0 0.00 0.00 0.00 59 1012.5
20260831235602 70 306 2.0 4.0 0.00 0.00 0.00 60 1012.5
20260831235058 69 354 2.0 3.0 0.00 0.00 0.00 61 1012.5
20260831234552 69 21 3.0 6.0 0.00 0.00 0.00 60 1012.5
20260831234048 70 64 2.0 4.0 0.00 0.00 0.00 60 1012.5
20260831233543 70 340 3.0 3.0 0.00 0.00 0.00 58 1012.5
20260831233039 72 101 1.0 4.0 0.00 0.00 0.00 57 1012.8
20260831232534 72 169 0.0 6.0 0.00 0.00 0.00 58 1012.8
20260831232030 73 188 1.0 2.0 0.00 0.00 0.00 55 1012.8
20260831231526 71 128 1.0 4.0 0.00 0.00 0.00 58 1013.1
20260831231021 70 109 0.0 3.0 0.00 0.00 0.00 59 1012.8
20260831230516 70 115 1.0 8.0 0.00 0.00 0.00 60 1012.8
20260831230011 70 341 2.0 6.0 0.00 0.00 0.00 60 1013.1
20260831225507 70 70 3.0 7.0 0.00 0.00 0.00 60 1013.1
20260831225006 69 109 1.0 7.0 0.00 0.00 0.00 62 1013.1
20260831224501 72 316 3.0 4.0 0.00 0.00 0.00 58 1013.5
20260831223956 70 63 1.0 4.0 0.00 0.00 0.00 60 1013.1
20260831223451 71 26 2.0 3.0 0.00 0.00 0.00 59 1013.1
20260831222947 70 124 1.0 3.0 0.00 0.00 0.00 61 1013.5
20260831222443 69 90 1.0 2.0 0.00 0.00 0.00 61 1013.5
20260831221938 71 55 2.0 6.0 0.00 0.00 0.00 59 1013.5
20260831221434 68 313 1.0 3.0 0.00 0.00 0.00 64 1013.5
20260831220929 69 345 2.0 4.0 0.00 0.00 0.00 63 1013.5
20260831220424 70 331 2.0 2.0 0.00 0.00 0.00 60 1013.5
20260831215919 69 71 2.0 4.0 0.00 0.00 0.00 62 1013.8
20260831215415 71 336 4.0 6.0 0.00 0.00 0.00 61 1013.8
20260831214911 71 182 0.0 2.0 0.00 0.00 0.00 60 1013.8
20260831214409 68 194 2.0 4.0 0.00 0.00 0.00 64 1013.8
20260831213904 71 317 1.0 4.0 0.00 0.00 0.00 61 1014.1
20260831213401 73 108 1.0 3.0 0.00 0.00 0.00 57 1014.1
20260831212855 69 120 1.0 7.0 0.00 0.00 0.00 62 1014.1
20260831212352 68 55 1.0 3.0 0.00 0.00 0.00 64 1013.8
20260831211850 68 45 3.0 6.0 0.00 0.00 0.00 64 1014.1
20260831211345 68 0 2.0 7.0 0.00 0.00 0.00 64 1014.1
20260831210844 68 20 4.0 8.0 0.00 0.00 0.00 64 1014.1
20260831210340 68 51 1.0 3.0 0.00 0.00 0.00 63 1014.1
20260831205836 69 310 4.0 6.0 0.00 0.00 0.00 61 1014.1
20260831205331 69 110 1.0 6.0 0.00 0.00 0.00 62 1014.5
20260831204826 68 39 1.0 3.0 0.00 0.00 0.00 63 1014.1
20260831204325 67 14 2.0 4.0 0.00 0.00 0.00 63 1014.5
20260831203824 68 88 3.0 6.0 0.00 0.00 0.00 63 1014.5
20260831203319 68 71 4.0 4.0 0.00 0.00 0.00 62 1014.5
20260831202817 68 83 3.0 6.0 0.00 0.00 0.00 63 1014.8
20260831202312 68 290 4.0 6.0 0.00 0.00 0.00 62 1014.8
20260831201807 67 61 3.0 6.0 0.00 0.00 0.00 63 1014.8
20260831201305 67 26 3.0 4.0 0.00 0.00 0.00 64 1014.8
20260831200801 68 15 2.0 4.0 0.00 0.00 0.00 64 1014.8
20260831200256 67 10 2.0 4.0 0.00 0.00 0.00 65 1014.8
20260831195751 68 253 2.0 4.0 0.00 0.00 0.00 63 1014.8
20260831195247 68 53 5.0 7.0 0.00 0.00 0.00 63 1014.8
20260831194742 68 192 2.0 3.0 0.00 0.00 0.00 64 1014.8
20260831194238 68 74 1.0 3.0 0.00 0.00 0.00 63 1014.8
20260831193731 66 349 2.0 8.0 0.00 0.00 0.00 66 1014.8
20260831193227 68 25 1.0 3.0 0.00 0.00 0.00 64 1015.2
20260831192722 66 357 2.0 6.0 0.00 0.00 0.00 66 1015.2
20260831192217 66 283 2.0 8.0 0.00 0.00 0.00 67 1015.2
20260831191713 66 86 1.0 3.0 0.00 0.00 0.00 67 1015.2
20260831191209 65 70 3.0 7.0 0.00 0.00 0.00 68 1015.5